Regional Weather Roundup
Issued by NWS

Home | Current Version | Previous Version | Graphics & Text | Print | Product List | Glossary On
Versions: 1 2 3 4 5 6 7 8 9 10 11 12 13 14 15 16 17 18 19 20 21 22 23 24 25 26 27 28 29 30 31 32 33 34 35 36 37 38 39 40 41 42 43 44 45 46 47 48 49 50
000
ASUS43 KDMX 261207
RWRIA

WEATHER ROUNDUP FOR IOWA
NATIONAL WEATHER SERVICE DES MOINES IA
700 AM CDT TUE MAY 26 2015

NOTE: "FAIR" INDICATES FEW OR NO CLOUDS BELOW 12,000 FEET WITH NO
SIGNIFICANT WEATHER AND/OR OBSTRUCTIONS TO VISIBILITY.

* - THESE STATIONS ARE NOT NWS STATIONS...THUS NOT UNDER NWS
QUALITY CONTROL.  THEY ALSO DO NOT REPORT WEATHER SUCH
AS PRECIPITATION OR FOG.

IAZ001>003-012>014-020>022-031>034-043>046-261300-
   NORTHWEST IOWA

CITY           SKY/WX    TMP DP  RH WIND       PRES   REMARKS
CARROLL *      CLOUDY    59  59 100 CALM      29.79S
CHEROKEE *     DRIZZLE   60  60 100 CALM      29.79R
DENISON *      PTSUNNY   59  59 100 SE5       29.77R
LE MARS *      CLOUDY    61  59  94 W5        29.80R
ORANGE CITY *  CLOUDY    57  57 100 E5        29.79R FOG
SHELDON *      CLOUDY    57  57 100 E9G16     29.79R
SIOUX CITY     LGT RAIN  62  59  90 CALM      29.78R FOG
6HR MIN TEMP:  61; 6HR MAX TEMP:  63; 6HR PCP:  0.46;

SPENCER        CLOUDY    59  57  93 NE10      29.80S
6HR MIN TEMP:  59; 6HR MAX TEMP:  63; 6HR PCP:  0.04;

STORM LAKE *   PTSUNNY   61  57  88 SE6       29.80S
$$

IAZ055>058-069>071-079>083-090>094-261300-
   SOUTHWEST IOWA

CITY           SKY/WX    TMP DP  RH WIND       PRES   REMARKS
ATLANTIC *     DRIZZLE   59  59 100 CALM      29.78R
AUDUBON *      LGT RAIN  59  55  88 CALM      29.80R
COUNCIL BLFS * MOSUNNY   59  59 100 SE5       29.79R
CRESTON *      LGT RAIN  59  59 100 N6G13     29.77S
HARLAN  *      LGT RAIN  59  59 100 SW5       29.82R
LAMONI         LGT RAIN  62  59  90 N7        29.76F FOG
6HR MIN TEMP:  62; 6HR MAX TEMP:  65; 6HR PCP:  0.54;

RED OAK *      CLOUDY    61  61 100 NW3       29.78S
SHENANDOAH *   CLOUDY    61  61 100 CALM      29.79R
$$

IAZ047>049-059>061-072>074-084-261300-
   CENTRAL IOWA

CITY           SKY/WX    TMP DP  RH WIND       PRES   REMARKS
AMES           LGT RAIN  60  58  92 N10       29.78F FOG
6HR MIN TEMP:  57; 6HR MAX TEMP:  61; 6HR PCP:  0.36;

ANKENY *       LGT RAIN  61  61 100 N7        29.78S
CHARITON *     RAIN      61  61 100 N12       29.76F
DES MOINES     LGT RAIN  62  59  90 NE3       29.78S FOG
6HR MIN TEMP:  62; 6HR MAX TEMP:  63; 6HR PCP:  0.72;

GRINNELL*      RAIN      61  59  94 NW12G17   29.77F
KNOXVILLE *    RAIN      61  59  94 VRB5G12   29.76S
MARSHALLTOWN   RAIN      60  59  96 N10       29.79F FOG
6HR MIN TEMP:  59; 6HR MAX TEMP:  62; 6HR PCP:  0.27;

PELLA *        HVY RAIN  60  60 100 N6        29.78F
PERRY *        RAIN      60  59  96 N7        29.79S
$$

IAZ004>006-015-016-023>025-035-036-261300-
   NORTH CENTRAL IOWA

CITY           SKY/WX    TMP DP  RH WIND       PRES   REMARKS
ALGONA *       SUNNY     61  59  94 S13       29.81S
CLARION *      LGT RAIN  61 N/A N/A SW8       29.81F
ESTHERVILLE    CLOUDY    57  56  96 NE5       29.81S
6HR MIN TEMP:  56; 6HR MAX TEMP:  64; 6HR PCP: TRACE;

FORT DODGE *   CLOUDY    59  55  88 CALM      29.81F
MASON CITY     LGT RAIN  61  57  87 SW10      29.82F
6HR MIN TEMP:  57; 6HR MAX TEMP:  63; 6HR PCP: TRACE;

FOREST CITY *  SUNNY     59  57  94 SW7       29.82F
IOWA FALLS *   RAIN      59  57  94 W6        29.81F
$$

IAZ007>011-017>019-026>030-037>042-050>054-066-261300-
   NORTHEAST IOWA

CITY           SKY/WX    TMP DP  RH WIND       PRES   REMARKS
CEDAR RAPIDS   LGT RAIN  67  66  97 S10       29.78R
6HR MIN TEMP:  65; 6HR MAX TEMP:  68; 6HR PCP:  0.07;

CHARLES CITY * LGT RAIN  61  61 100 NW6       29.83S
CLINTON *      CLOUDY    68  64  88 SE17G23   29.83F
DECORAH *      SUNNY     61  59  94 CALM      29.80F
DUBUQUE        CLOUDY    66  64  93 E9        29.82F
6HR MIN TEMP:  63; 6HR MAX TEMP:  67;

MONTICELLO *   CLOUDY    68  68 100 E10       29.80F
OELWEIN *      MOSUNNY   64  63  94 SE12      29.77F
WATERLOO       TSTM      60  59  96 W17G25    29.79F FOG
6HR MIN TEMP:  60; 6HR MAX TEMP:  65; 6HR PCP:  0.12;

$$

IAZ064-065-067-068-078-261300-
   EAST CENTRAL IOWA

CITY           SKY/WX    TMP DP  RH WIND       PRES   REMARKS
DAVENPORT      TSTM      68  65  90 S23G29    29.83S VSB 3/4
6HR MIN TEMP:  68; 6HR MAX TEMP:  70; 6HR PCP:  0.03;

IOWA CITY      RAIN      67  66  97 S8        29.81R FOG
6HR MIN TEMP:  66; 6HR MAX TEMP:  71; 6HR PCP:  0.06;

MT. PLEASANT * LGT RAIN  67  66  99 S9G16     29.79F
MUSCATINE *    CLOUDY    70  68  94 S12       29.80F FOG
QUAD CITIES    CLOUDY    69  66  90 SE12G22   29.82R
6HR MIN TEMP:  67; 6HR MAX TEMP:  71; 6HR PCP:  0.07;

$$

IAZ062-063-075>077-085>089-095>099-261300-
   SOUTHEAST IOWA

CITY           SKY/WX    TMP DP  RH WIND       PRES   REMARKS
BURLINGTON     LGT RAIN  69  67  93 SE9       29.78F
6HR MIN TEMP:  69; 6HR MAX TEMP:  72; 6HR PCP:  0.05;

FAIRFIELD *    CLOUDY    68  66  94 S18G26    29.77R FOG
FORT MADISON * RAIN      68  66  94 SE7       29.79F
KEOKUK *       LGT RAIN  68  68 100 SE13G21   29.78F
OSKALOOSA *    RAIN      60  59  94 N16       29.75F
CENTERVILLE *  LGT RAIN  61  61 100 N8        29.76F
OTTUMWA        LGT RAIN  66  65  96 W17G24    29.76S
6HR MIN TEMP:  63; 6HR MAX TEMP:  67; 6HR PCP:  0.25;

WASHINGTON *   CLOUDY    68  66  94 SE17G26   29.79F FOG
$$

ABBREVIATIONS USED IN REMARKS
   TC - TEMPERATURES IN CELSIUS
  WCI - WIND CHILL INDEX
   HX - HEAT INDEX
  VSB - VISIBILITY
$$




USA.gov is the U.S. government's official web portal to all federal, state and local government web resources and services.